Location: ??????
(38.0677°N, 22.9870°E)
Time: 14:31:46
(UTC+00:00)

Geosat - Pass Details

Date: 23 May 2024
Orbit: 760 x 763 km, 108.1° (Epoch: 12 June)

Event Time Altitude Azimuth Distance (km) Brightness Sun altitude
Rises 02:20:22 0° 165° (SSE) 3,206 7.0 -9.4°
Reaches altitude 10° 02:22:40 10° 169° (S) 2,285 6.2 -9.0°
Maximum altitude 02:27:33 56° 247° (WSW) 903 4.1 -8.2°
Drops below altitude 10° 02:32:29 10° 326° (NW) 2,302 6.5 -7.4°
Sets 02:34:49 0° 331° (NNW) 3,232 7.3 -7.1°
